• In Hungary
  • List of Countries
  • For 7 days
  • Water Temperature
  • Satellite Maps
  • Weather Map
  • News
  • Weather Widgets
  • user-avatar
    Login

    Hourly Weather Bocas del Toro

    Today, 20 August, Sunday

    Time Temperature Precipitation Wind Pressure Humidity
    00:00 +29°C° 0.6 mm 1 mps 757 mmHg 82%
    01:00 +28°C° 0.6 mm 1 mps 757 mmHg 81%
    02:00 +28°C° 0.2 mm 1 mps 757 mmHg 79%
    03:00 +28°C° 0.2 mm 1 mps 757 mmHg 77%
    04:00 +28°C° 0.2 mm 1 mps 757 mmHg 74%
    05:00 +28°C° 0 mm 1 mps 757 mmHg 72%
    06:00 +28°C° 0 mm 1 mps 757 mmHg 69%
    07:00 +28°C° 0 mm 1 mps 757 mmHg 67%
    08:00 +30°C° 0 mm 1 mps 758 mmHg 61%
    09:00 +31°C° 0 mm 1 mps 758 mmHg 55%
    10:00 +33°C° 0 mm 1 mps 758 mmHg 49%
    11:00 +33°C° 0.3 mm 1 mps 758 mmHg 49%
    12:00 +34°C° 0.3 mm 1 mps 758 mmHg 48%
    13:00 +34°C° 0.3 mm 1 mps 757 mmHg 48%
    14:00 +35°C° 0.3 mm 2 mps 757 mmHg 52%
    15:00 +34°C° 0.3 mm 2 mps 757 mmHg 56%
    16:00 +32°C° 0.3 mm 2 mps 756 mmHg 60%
    17:00 +31°C° 0.3 mm 1 mps 757 mmHg 66%
    18:00 +30°C° 0.3 mm 1 mps 757 mmHg 72%
    19:00 +29°C° 0.3 mm 1 mps 757 mmHg 79%
    20:00 +29°C° 0.1 mm 1 mps 758 mmHg 80%
    21:00 +29°C° 0.1 mm 1 mps 758 mmHg 82%
    22:00 +29°C° 0.1 mm 1 mps 758 mmHg 83%
    23:00 +29°C° 0.2 mm 1 mps 758 mmHg 83%

    Tomorrow, 21 August, Monday

    Time Temperature Precipitation Wind Pressure Humidity
    00:00 +29°C° 0.2 mm 1 mps 758 mmHg 82%
    01:00 +29°C° 0.2 mm 1 mps 758 mmHg 82%
    02:00 +28°C° 0.2 mm 1 mps 758 mmHg 83%
    03:00 +28°C° 0.2 mm 1 mps 757 mmHg 84%
    04:00 +27°C° 0.2 mm 1 mps 757 mmHg 86%
    05:00 +27°C° 0.1 mm 1 mps 758 mmHg 82%
    06:00 +27°C° 0.1 mm 1 mps 758 mmHg 79%
    07:00 +28°C° 0.1 mm 1 mps 758 mmHg 75%
    08:00 +30°C° 0.2 mm 1 mps 759 mmHg 65%
    09:00 +32°C° 0.2 mm 1 mps 759 mmHg 54%
    10:00 +34°C° 0.2 mm 1 mps 759 mmHg 43%
    11:00 +35°C° 0 mm 1 mps 759 mmHg 44%
    12:00 +36°C° 0 mm 1 mps 759 mmHg 44%
    13:00 +37°C° 0 mm 2 mps 759 mmHg 45%
    14:00 +36°C° 0.1 mm 2 mps 758 mmHg 51%
    15:00 +35°C° 0.1 mm 2 mps 758 mmHg 58%
    16:00 +32°C° 0.1 mm 2 mps 757 mmHg 64%
    17:00 +31°C° 0 mm 2 mps 758 mmHg 70%
    18:00 +30°C° 0 mm 2 mps 758 mmHg 76%
    19:00 +29°C° 0 mm 1 mps 758 mmHg 82%
    20:00 +29°C° 0 mm 1 mps 759 mmHg 81%
    21:00 +29°C° 0 mm 1 mps 759 mmHg 81%
    22:00 +29°C° 0 mm 1 mps 760 mmHg 81%
    23:00 +29°C° 0 mm 1 mps 760 mmHg 80%

    Day after tomorrow, 22 August, Tuesday

    Time Temperature Precipitation Wind Pressure Humidity
    00:00 +29°C° 0 mm 1 mps 759 mmHg 79%
    01:00 +29°C° 0 mm 1 mps 759 mmHg 79%
    02:00 +29°C° 0 mm 1 mps 759 mmHg 79%
    03:00 +28°C° 0 mm 1 mps 758 mmHg 79%
    04:00 +26°C° 0 mm 0 mps 758 mmHg 79%
    05:00 +28°C° 0 mm 1 mps 758 mmHg 77%
    06:00 +28°C° 0 mm 1 mps 758 mmHg 75%
    07:00 +28°C° 0 mm 1 mps 759 mmHg 73%
    08:00 +30°C° 0 mm 1 mps 759 mmHg 64%
    09:00 +32°C° 0 mm 1 mps 759 mmHg 55%
    10:00 +35°C° 0 mm 1 mps 760 mmHg 46%
    11:00 +35°C° 0 mm 1 mps 759 mmHg 44%
    12:00 +37°C° 0 mm 2 mps 759 mmHg 43%
    13:00 +38°C° 0 mm 2 mps 759 mmHg 41%
    14:00 +37°C° 0.6 mm 3 mps 758 mmHg 44%
    15:00 +37°C° 0.6 mm 3 mps 758 mmHg 48%
    16:00 +36°C° 0.6 mm 3 mps 757 mmHg 51%
    17:00 +34°C° 0.9 mm 3 mps 757 mmHg 59%
    18:00 +31°C° 0.9 mm 2 mps 758 mmHg 67%
    19:00 +30°C° 0.9 mm 1 mps 758 mmHg 75%
    20:00 +30°C° 0.2 mm 1 mps 758 mmHg 77%
    21:00 +29°C° 0.2 mm 1 mps 759 mmHg 78%
    22:00 +27°C° 0.2 mm 0 mps 759 mmHg 80%
    23:00 +29°C° 0 mm 1 mps 759 mmHg 79%

    23 August, Wednesday

    Time Temperature Precipitation Wind Pressure Humidity
    00:00 +29°C° 0 mm 1 mps 758 mmHg 79%
    01:00 +29°C° 0 mm 1 mps 758 mmHg 79%
    02:00 +29°C° 0.2 mm 1 mps 758 mmHg 79%
    03:00 +28°C° 0.2 mm 1 mps 757 mmHg 79%
    04:00 +28°C° 0.2 mm 1 mps 757 mmHg 79%
    05:00 +28°C° 0.9 mm 1 mps 757 mmHg 79%
    06:00 +28°C° 0.9 mm 1 mps 757 mmHg 78%
    07:00 +26°C° 0.9 mm 0 mps 758 mmHg 78%
    08:00 +30°C° 0.2 mm 1 mps 758 mmHg 70%
    09:00 +31°C° 0.2 mm 1 mps 758 mmHg 62%
    10:00 +33°C° 0.2 mm 1 mps 758 mmHg 54%
    11:00 +33°C° 0 mm 1 mps 758 mmHg 53%
    12:00 +33°C° 0 mm 1 mps 757 mmHg 52%
    13:00 +35°C° 0 mm 2 mps 757 mmHg 52%
    14:00 +34°C° 0.3 mm 2 mps 756 mmHg 53%
    15:00 +34°C° 0.3 mm 2 mps 756 mmHg 55%
    16:00 +34°C° 0.3 mm 2 mps 755 mmHg 57%
    17:00 +31°C° 0.2 mm 2 mps 756 mmHg 64%
    18:00 +30°C° 0.2 mm 2 mps 756 mmHg 71%
    19:00 +29°C° 0.2 mm 1 mps 756 mmHg 78%
    20:00 +29°C° 0.2 mm 1 mps 757 mmHg 79%
    21:00 +29°C° 0.2 mm 2 mps 757 mmHg 80%
    22:00 +29°C° 0.2 mm 2 mps 758 mmHg 82%
    23:00 +29°C° 0.1 mm 2 mps 757 mmHg 82%

    24 August, Thursday

    Time Temperature Precipitation Wind Pressure Humidity
    00:00 +29°C° 0.1 mm 2 mps 757 mmHg 82%
    01:00 +29°C° 0.1 mm 2 mps 757 mmHg 82%
    02:00 +28°C° 0.1 mm 2 mps 756 mmHg 83%
    03:00 +28°C° 0.1 mm 2 mps 756 mmHg 84%
    04:00 +28°C° 0.1 mm 2 mps 756 mmHg 85%
    05:00 +28°C° 0.6 mm 2 mps 756 mmHg 86%
    06:00 +28°C° 0.6 mm 2 mps 757 mmHg 87%
    07:00 +28°C° 0.6 mm 2 mps 757 mmHg 87%
    08:00 +28°C° 0.8 mm 2 mps 757 mmHg 86%
    09:00 +29°C° 0.8 mm 2 mps 758 mmHg 85%
    10:00 +29°C° 0.8 mm 2 mps 758 mmHg 83%
    11:00 +30°C° 0.2 mm 2 mps 758 mmHg 80%
    12:00 +30°C° 0.2 mm 3 mps 758 mmHg 76%
    13:00 +31°C° 0.2 mm 3 mps 757 mmHg 72%
    14:00 +31°C° 0.2 mm 3 mps 757 mmHg 73%
    15:00 +30°C° 0.2 mm 3 mps 757 mmHg 74%
    16:00 +30°C° 0.2 mm 4 mps 756 mmHg 75%
    17:00 +30°C° 0.2 mm 3 mps 756 mmHg 78%
    18:00 +29°C° 0.2 mm 3 mps 757 mmHg 82%
    19:00 +28°C° 0.2 mm 3 mps 757 mmHg 85%
    20:00 +28°C° 0.1 mm 3 mps 758 mmHg 85%
    21:00 +28°C° 0.1 mm 3 mps 758 mmHg 85%
    22:00 +28°C° 0.1 mm 3 mps 758 mmHg 85%
    23:00 +28°C° 0.3 mm 3 mps 758 mmHg 85%

    25 August, Friday

    Time Temperature Precipitation Wind Pressure Humidity
    00:00 +28°C° 0.3 mm 3 mps 758 mmHg 84%
    01:00 +28°C° 0.3 mm 3 mps 757 mmHg 84%
    02:00 +28°C° 0.3 mm 3 mps 757 mmHg 84%
    03:00 +28°C° 0.3 mm 2 mps 757 mmHg 84%
    04:00 +28°C° 0.3 mm 2 mps 757 mmHg 84%
    05:00 +28°C° 0.2 mm 2 mps 757 mmHg 84%
    06:00 +28°C° 0.2 mm 1 mps 758 mmHg 84%
    07:00 +28°C° 0.2 mm 1 mps 758 mmHg 83%
    08:00 +29°C° 0 mm 1 mps 759 mmHg 79%
    09:00 +30°C° 0 mm 1 mps 759 mmHg 75%
    10:00 +31°C° 0 mm 1 mps 759 mmHg 71%
    11:00 +32°C° 0 mm 1 mps 759 mmHg 67%
    12:00 +33°C° 0 mm 1 mps 759 mmHg 63%
    13:00 +35°C° 0 mm 2 mps 758 mmHg 59%
    14:00 +34°C° 0 mm 2 mps 758 mmHg 62%
    15:00 +34°C° 0 mm 2 mps 757 mmHg 65%
    16:00 +32°C° 0 mm 2 mps 757 mmHg 68%
    17:00 +31°C° 0 mm 1 mps 757 mmHg 72%
    18:00 +30°C° 0 mm 1 mps 758 mmHg 77%
    19:00 +28°C° 0 mm 1 mps 758 mmHg 81%
    20:00 +28°C° 0 mm 1 mps 759 mmHg 81%
    21:00 +28°C° 0 mm 1 mps 759 mmHg 80%
    22:00 +28°C° 0 mm 1 mps 759 mmHg 80%
    23:00 +27°C° 0 mm 1 mps 759 mmHg 76%
    Show more